COSMOS 2491 DEB, 44996

Orbit data source: Space-Track

COSMOS 2491 DEB, 44996 is space debris in LEO originally from a launch on Wed, 25 Dec 2013 UTC launched from the Plesetsk Missile And Space Complex (PKMTR). Debris objects in space refer to the collection of defunct objects orbiting the Earth. Examples of debris include non-operational satellites, rocket bodies, and fragments generated from explosions, collisions, or faulty payload assembly.

Loading next visibility...
Identifier
44996, 2013-076R
Orbit
LEO
Country
Flag of CISCIS
Related business
Manufacturer
TsNIIKhM
Mission
Spacecraft
Bus & Motor
Unknown
Mass
Unknown
Launch date (UTC)
2013-12-25 (12 years ago)
Launch vehicle
Unknown
Launch site
Plesetsk Missile And Space Complex (PKMTR)
Object type
Payload
Rocket body
Debris
Shape & HBR
Unknown shape, 0.1 m
Radar Cross Section
Small (<0.1 m²)

Expand to show TLE details & history
Last TLE update: 1 week ago

TLE from 1 week ago
0 COSMOS 2491 DEB
1 44996U 13076R   26166.76278063  .00000081  00000-0  50775-3 0  9995
2 44996  82.4808 169.5723 0018236  86.5195 273.7971 12.43353669292181
Epoch: 2026-06-15T18:18Z
TLE epoch observation values (Epoch: 2026-06-15T18:18:24.246Z)
Latitude
0.00004°
Longitude
-9.07323°
Altitude
1,494.194 km
Speed
7.117 km/s
True Right ascension
11h 18m 17s
True Declination
0° 00' 00"
Sunlit
Object was in daylight at epoch
Visualization orbit readout
Latitude
Unknown
Longitude
Unknown
Altitude
Unknown
Speed
Unknown
Apparent Right ascension
Unknown
Apparent Declination
Unknown
Sunlit
N/A
Visualization observer readout
Local Sidereal Time
21:39:48
Azimuth
Unknown
Elevation
Unknown
Doppler factor
Unknown
Orbital elements
Apogee altitude
1,504.118 km
Perigee altitude
1,475.422 km
Semi-major axis
7,867.907 km
Eccentricity
0.00182
Inclination
82.4808°
RAAN
169.5723°
Arg. of periapsis
86.5195°
True anomaly
273.58856°
Mean anomaly
273.7971°
Eccentric anomaly
273.69283°
Mean motion
3.10996 °/min
Orbital period
115.76 mins
BSTAR
0.00050775
Loading maneuver chart data...
Computing Atmospheric mass density...
Loading historical data...
Loading historical data...
Loading historical data...
Loading historical data...
Loading historical data...
Loading historical data...
Loading historical data...

Documentation

Showing up to 5 results
|